Theta_e
349 347 342 341 339 339 337 335 332 330 330 330 333 335 338 339 340 339 339 338 337 336 335 331 328 328 328 326 321 316 315 315 317 318 316 313 312 312 312 312 312 310 310 310 310 309 309 309 309 309 310 310 310 311 314 318 324 329 332 333 333 332 332 331 330 331 332 333 334 335 336 336 336 336 336 336 336 336 336 335 332 332 332 333 334
349 346 341 340 339 339 336 334 332 330 328 329 333 336 338 339 340 339 339 338 337 336 336 334 332 332 331 329 326 319 315 315 316 317 316 315 313 313 312 311 310 310 310 310 310 309 308 309 309 309 310 309 310 311 314 316 319 324 329 332 332 331 331 330 330 330 331 332 332 334 335 334 335 335 335 335 336 334 331 326 325 328 329 330 333
348 344 340 340 339 338 337 334 331 328 327 328 332 336 338 339 340 340 340 338 338 337 336 336 335 334 333 332 330 325 317 314 315 315 315 314 313 313 312 311 310 310 310 310 309 309 309 309 309 309 309 310 310 310 312 313 316 319 324 329 331 330 330 329 329 328 328 329 330 331 332 331 331 333 334 334 335 331 324 319 319 322 325 327 329
347 343 339 339 338 338 336 334 330 326 326 326 331 334 337 339 340 340 340 339 338 337 336 336 336 336 335 334 332 329 322 316 315 315 314 313 314 315 313 310 310 310 309 309 309 309 309 309 309 309 309 309 310 310 310 312 313 316 319 324 329 330 329 329 329 328 328 327 328 329 331 331 329 330 331 332 333 331 322 317 317 319 320 321 324
347 343 339 339 338 338 336 334 329 325 325 325 329 332 335 339 340 341 340 339 339 338 337 336 336 336 336 336 334 332 327 320 315 315 316 316 318 318 315 310 310 310 309 310 309 310 310 309 308 308 309 308 309 309 310 311 312 315 316 320 326 329 329 330 329 330 330 329 330 330 332 332 329 330 330 330 331 331 327 320 317 317 316 317 319
347 344 339 338 338 338 337 333 327 324 323 323 327 330 333 338 339 340 340 339 339 338 337 336 336 336 336 336 334 333 331 324 316 314 315 317 317 319 317 311 310 311 309 309 309 309 311 312 310 309 309 308 309 309 310 311 312 314 315 318 323 328 327 327 329 331 331 331 332 331 332 333 333 332 329 328 326 327 329 326 321 317 316 316 315
347 343 339 338 338 338 336 331 324 323 322 321 323 326 330 336 338 339 339 340 339 338 337 336 336 336 336 336 335 333 331 327 319 315 314 316 316 317 317 314 316 316 311 310 310 310 313 314 312 311 310 309 308 309 309 310 311 312 314 316 320 325 323 323 329 332 331 331 331 332 332 333 334 332 327 325 324 323 325 326 323 319 317 315 314
345 343 341 340 338 338 335 327 323 324 324 323 322 322 326 331 335 337 338 339 339 338 337 336 336 336 336 335 335 333 330 327 322 316 315 317 316 316 315 316 321 318 314 314 313 313 315 315 314 314 312 310 309 309 309 309 310 311 312 314 316 320 319 322 329 331 331 331 331 331 332 331 331 328 323 321 321 320 321 322 322 320 318 314 314
344 343 343 342 338 338 333 324 325 327 328 328 325 323 323 327 331 335 338 338 338 338 337 337 336 336 336 334 333 332 328 326 323 319 318 320 319 318 316 317 323 323 320 320 319 318 317 316 316 315 314 312 311 310 309 309 309 310 310 312 315 318 322 327 332 332 332 331 332 333 332 332 328 322 316 315 315 316 318 319 319 319 318 315 314
345 344 344 342 338 338 330 323 328 330 331 330 329 328 325 325 328 333 337 338 338 338 337 337 336 335 334 331 330 329 329 330 331 328 326 326 323 321 319 322 327 328 326 325 328 328 321 317 316 316 315 313 313 312 311 310 309 310 310 312 317 324 328 330 331 331 331 330 331 331 329 328 322 314 311 311 311 313 314 315 314 315 315 315 315
345 345 345 343 338 336 328 324 330 331 332 332 331 330 326 325 325 329 334 337 337 337 337 336 334 333 331 329 330 331 334 336 334 334 334 332 328 322 323 331 331 328 329 330 333 331 323 318 317 316 315 314 313 313 312 311 310 310 311 314 320 327 329 329 330 329 330 329 329 328 322 315 311 310 310 310 310 311 312 312 312 312 312 313 313
346 346 345 342 338 335 327 325 331 332 333 332 332 330 328 325 323 325 330 335 337 337 337 334 332 332 331 333 336 336 337 337 331 330 332 333 328 323 329 335 332 330 332 332 333 329 322 319 318 315 315 314 313 313 313 312 311 311 313 315 321 328 331 332 332 332 334 333 330 327 317 310 309 309 309 309 310 309 310 310 310 310 310 310 311
346 346 345 341 337 334 326 326 330 332 333 332 332 331 329 326 323 323 327 334 336 337 335 332 333 334 335 338 340 339 338 336 331 325 325 329 326 323 332 334 330 332 333 333 332 328 322 320 319 316 315 315 314 313 313 313 312 312 314 316 321 327 331 332 333 334 334 333 330 322 312 310 310 309 309 310 309 309 309 308 309 309 308 308 309
346 347 344 338 338 333 325 326 330 331 332 332 332 331 329 326 322 323 326 331 333 333 332 331 335 337 338 340 340 339 336 334 332 326 324 327 326 326 333 333 329 333 334 332 330 326 323 322 320 318 315 315 315 314 314 314 313 313 314 316 320 324 327 331 333 333 333 332 329 317 309 311 311 310 310 310 310 309 309 309 309 308 308 308 308
346 347 341 337 338 332 325 326 328 330 332 331 332 331 330 327 321 322 326 329 329 330 331 332 336 338 340 339 338 338 335 332 329 328 326 325 325 327 332 332 330 333 332 329 327 325 325 324 322 320 318 317 316 315 314 314 314 314 314 316 320 325 329 332 333 334 334 334 328 314 309 310 310 311 310 310 310 310 310 309 309 308 309 309 308
347 346 340 337 338 333 326 325 328 329 330 331 331 331 330 326 320 320 325 328 328 330 333 333 336 338 339 338 336 335 333 330 326 327 327 324 323 326 331 332 332 333 329 325 324 326 326 325 324 323 322 321 319 318 316 315 315 315 316 317 320 326 330 333 334 335 334 332 327 315 308 309 309 310 310 310 310 310 310 309 309 309 309 309 309
349 346 340 337 338 334 327 326 329 328 330 330 330 331 329 326 320 319 323 327 328 331 333 333 335 336 336 334 332 332 332 329 326 326 327 325 321 323 330 332 333 332 326 322 323 326 327 327 325 325 325 324 322 321 320 318 317 317 317 317 319 325 330 333 334 335 335 334 331 320 310 309 309 309 309 309 310 310 310 310 310 309 309 309 309
348 345 342 338 337 336 331 330 332 332 333 333 332 330 328 326 321 319 320 323 328 331 333 332 333 333 332 330 329 331 330 328 328 328 329 329 324 323 329 332 333 330 324 321 323 326 327 327 326 325 326 325 325 325 323 322 320 319 318 317 319 323 329 331 332 334 335 335 331 318 309 309 308 309 308 309 309 309 309 309 310 309 310 309 309
347 346 344 340 339 339 337 334 334 336 337 337 336 332 328 327 322 320 320 322 327 330 332 331 331 330 330 329 328 329 328 327 329 331 331 333 330 326 326 329 331 329 324 322 322 324 326 326 325 325 325 325 326 327 327 325 323 322 320 319 321 326 331 332 332 333 334 334 327 313 309 310 309 309 308 308 308 308 309 309 309 309 309 309 310
346 345 344 342 342 341 339 336 335 336 337 337 335 333 329 327 323 322 322 324 327 329 331 331 330 330 330 328 326 327 327 328 330 331 333 333 333 330 326 325 327 326 325 321 320 323 324 325 325 325 325 325 326 327 328 327 325 324 321 322 323 328 334 334 333 333 333 329 319 311 311 311 310 310 309 309 308 308 308 308 309 309 309 309 309
345 345 344 343 342 342 341 338 337 336 338 336 334 334 330 327 327 325 324 325 326 329 331 331 330 329 328 326 325 327 328 330 330 330 333 333 332 332 330 325 322 322 323 321 321 323 323 324 326 327 326 327 326 327 328 327 327 324 323 323 322 328 334 334 333 333 333 326 315 313 312 312 312 311 310 310 309 308 307 307 308 309 309 309 309
345 345 344 343 343 342 342 340 339 338 338 337 336 335 330 330 331 328 326 327 327 329 330 330 329 327 326 326 327 330 330 330 329 328 330 332 332 333 332 327 322 321 321 320 322 324 324 324 325 327 327 327 326 327 327 326 326 324 323 321 324 332 335 335 333 332 333 326 317 315 313 313 313 312 312 311 310 308 307 307 307 307 308 308 309
345 345 343 343 343 342 340 340 339 339 339 338 338 335 333 333 331 328 328 328 328 328 329 329 329 328 328 329 331 332 331 330 330 329 330 331 332 332 333 330 325 322 321 321 323 325 326 326 325 326 328 327 328 329 328 326 326 324 322 322 330 335 332 334 334 332 331 326 321 319 316 315 314 313 313 312 311 310 309 308 307 307 307 307 307
344 344 343 342 342 341 339 339 339 340 339 339 338 335 335 334 330 330 331 330 328 329 330 331 332 331 330 332 333 332 331 331 330 329 331 332 332 332 333 332 329 326 324 321 321 324 326 327 326 326 327 328 331 331 330 330 329 327 324 327 335 334 331 335 333 331 331 326 325 324 320 319 316 315 313 313 312 311 310 309 308 307 306 306 306
344 343 343 341 341 340 339 339 340 339 338 338 338 337 336 334 333 334 334 332 329 331 334 333 334 333 332 333 334 333 331 329 326 328 333 333 332 332 332 333 332 330 328 325 324 323 325 328 327 326 325 327 331 332 332 332 330 331 331 333 336 334 333 335 333 331 329 326 327 326 324 323 319 318 316 315 313 311 311 309 309 307 307 306 306
344 343 342 341 340 339 338 339 339 338 338 337 337 337 337 336 336 336 336 334 331 333 336 334 334 334 333 333 333 333 332 327 323 328 334 334 334 333 333 334 333 330 330 330 329 326 325 326 324 324 326 327 327 328 332 333 331 332 334 336 335 334 334 334 333 331 327 326 328 327 326 325 322 321 320 318 316 313 311 310 309 308 307 307 306
344 343 341 340 340 339 338 338 338 337 337 336 336 337 337 337 337 336 336 334 331 333 335 334 334 333 333 333 333 332 330 329 326 329 333 333 333 333 333 333 332 331 330 331 331 328 326 326 325 327 329 330 329 328 332 333 332 333 334 336 335 333 334 334 333 331 328 328 328 327 327 326 325 324 322 321 318 316 313 311 310 309 309 308 307
345 343 341 340 339 338 337 336 336 336 336 334 335 337 337 337 336 336 336 334 333 334 333 334 334 333 333 333 332 330 330 332 331 332 333 333 333 333 333 332 333 332 330 331 330 328 328 330 331 331 331 331 331 331 332 331 331 333 334 335 334 333 333 333 332 330 331 330 327 327 327 327 327 326 324 322 320 318 315 313 311 310 310 309 308
345 343 341 339 338 337 336 335 334 334 334 332 335 337 336 337 337 336 335 333 333 334 332 333 334 333 334 333 332 332 333 334 333 334 335 335 335 334 334 333 334 332 330 331 329 327 331 333 332 332 332 331 330 331 331 329 330 332 334 334 334 333 333 333 331 327 330 331 328 328 328 327 327 326 325 323 323 321 319 317 314 312 310 310 309
345 342 341 340 338 338 337 337 334 333 333 333 335 336 335 336 338 336 335 333 333 333 332 333 333 333 333 332 333 334 335 335 333 334 335 335 333 333 334 333 333 329 327 330 328 327 331 333 332 333 333 331 331 332 331 331 331 332 333 333 333 333 332 333 331 326 327 330 330 329 329 329 327 325 324 324 324 324 323 320 317 314 311 310 310
344 342 341 340 339 338 337 337 336 334 334 334 334 334 335 336 336 335 334 333 332 333 333 332 332 333 332 332 333 334 336 335 334 335 333 331 329 330 331 330 330 327 326 328 327 328 332 333 333 334 334 333 334 333 333 333 332 332 333 332 332 333 332 333 331 327 327 328 330 330 329 329 328 326 324 324 325 325 323 320 318 315 313 312 312
341 341 341 339 338 337 336 336 336 335 334 334 335 335 336 335 335 336 334 332 331 331 332 331 332 333 332 334 334 334 336 333 333 335 331 328 327 327 328 328 329 329 330 330 328 331 335 333 332 333 333 334 335 334 334 333 332 332 332 331 332 332 332 333 329 326 328 327 328 329 328 329 329 327 324 323 326 326 322 320 317 315 315 315 315
338 338 340 337 336 336 335 335 336 335 335 334 335 336 336 335 335 335 334 332 331 331 332 331 332 334 333 334 334 334 335 331 330 333 331 329 327 327 328 328 329 330 331 330 329 332 334 330 328 329 329 332 335 334 334 334 332 333 332 331 332 332 332 332 329 326 328 327 326 327 329 330 329 328 325 321 324 326 322 321 320 317 316 319 320
338 336 337 336 336 336 335 336 336 336 335 334 336 336 335 335 334 334 332 331 332 332 333 331 331 333 333 334 333 333 333 330 329 330 332 332 329 329 330 329 330 330 330 330 330 332 334 331 329 330 330 332 334 333 333 333 333 333 332 332 332 332 333 331 329 327 327 327 326 327 328 330 329 330 328 322 320 324 325 324 323 322 321 322 324
339 336 336 336 337 337 337 337 336 336 336 335 336 335 335 335 334 333 331 331 333 334 334 332 331 330 330 333 333 333 332 332 331 329 332 334 331 332 333 332 330 330 330 330 331 334 335 333 332 333 332 332 334 333 333 333 333 333 332 333 333 333 333 330 329 328 327 326 326 327 328 329 328 328 330 326 322 322 325 326 325 325 325 326 325
339 336 335 336 338 337 337 337 336 336 337 335 335 334 334 334 334 332 330 330 332 334 334 333 333 330 331 333 332 332 334 334 332 330 331 334 334 333 333 334 331 330 332 329 331 335 334 334 334 334 333 332 334 333 333 333 333 334 333 333 334 333 332 330 329 328 327 327 326 326 327 328 327 327 328 328 325 321 323 326 325 325 326 326 325
339 336 335 336 338 338 337 337 335 335 336 335 335 334 333 333 334 333 330 329 330 333 333 332 332 331 333 334 331 331 334 334 333 332 331 333 335 331 330 333 332 332 331 329 332 334 334 335 334 333 333 333 333 333 333 333 333 334 333 334 334 333 332 330 329 328 328 327 325 325 327 328 327 327 327 328 327 323 322 324 324 324 325 325 325
336 332 335 337 338 338 337 336 336 335 335 335 336 335 334 333 333 333 330 329 330 331 331 332 332 332 333 334 332 332 335 334 333 333 330 331 334 332 331 332 333 333 331 331 333 334 334 334 332 332 332 333 332 332 333 333 333 333 333 333 333 333 331 328 328 328 327 327 326 326 328 327 327 326 327 327 327 326 324 323 323 323 323 323 324
330 328 334 337 336 336 334 334 335 335 335 335 336 335 334 334 334 333 331 330 331 330 330 331 332 333 333 333 334 334 335 334 332 333 328 329 333 332 332 332 333 334 332 333 334 334 334 332 331 331 330 332 333 332 332 333 333 333 333 333 332 332 331 328 328 328 327 328 328 327 327 327 326 326 326 326 326 327 326 324 324 324 323 323 324
326 328 333 336 336 335 333 333 334 333 334 334 334 335 334 334 334 333 331 331 332 330 330 331 332 333 333 333 333 333 335 333 332 332 327 329 333 332 332 332 333 334 333 333 334 334 333 330 329 330 329 330 332 332 332 332 332 333 332 331 331 331 331 329 328 329 328 328 329 328 328 327 327 326 327 327 326 326 326 326 326 326 324 323 323
328 331 334 336 337 337 335 336 335 333 331 331 332 334 334 334 334 334 332 332 332 330 330 331 332 333 332 332 332 332 334 333 333 333 330 332 334 332 333 332 332 334 333 334 335 334 333 331 330 329 328 330 332 332 332 331 332 332 330 329 330 330 330 329 328 329 329 328 329 329 329 328 328 328 328 328 327 325 326 327 327 327 326 324 323
332 334 335 336 337 337 338 337 335 333 331 330 331 333 334 334 335 335 334 333 333 331 332 332 332 332 330 331 332 331 333 333 331 331 330 332 332 331 332 331 330 332 333 334 334 333 332 331 331 330 329 330 332 333 332 331 331 330 329 330 330 329 329 329 328 328 329 328 328 328 329 329 328 328 328 328 327 326 327 328 328 327 327 326 325
334 335 336 336 336 337 338 338 336 335 335 333 333 334 335 335 335 335 334 335 334 332 333 333 332 331 329 331 332 331 334 333 330 329 330 332 331 331 332 330 330 330 330 331 331 331 330 329 330 331 331 331 332 332 331 330 330 330 330 330 330 329 329 330 329 328 328 328 328 328 329 329 329 329 328 328 328 327 327 327 327 326 325 326 326
337 336 336 336 337 337 336 337 338 337 337 336 335 335 335 336 335 334 334 335 334 332 333 332 330 330 330 332 332 331 332 332 331 330 331 331 331 331 331 331 331 330 329 330 329 330 330 329 330 331 331 331 332 331 330 329 329 329 330 329 329 330 330 330 330 329 328 328 328 328 329 329 329 328 328 328 328 327 327 327 326 325 324 325 326
337 337 336 336 337 337 336 337 338 338 337 336 335 335 335 336 334 333 334 333 333 332 332 331 329 328 330 332 332 330 331 331 331 331 332 333 332 331 332 332 331 330 329 330 330 329 330 330 331 330 330 330 331 331 329 329 329 329 330 329 328 329 330 330 329 329 328 328 328 328 327 327 327 327 327 327 327 326 326 326 326 325 324 324 326
337 335 336 337 337 337 338 338 338 337 336 335 335 335 335 335 334 333 333 332 332 332 331 329 326 327 330 332 332 331 330 330 329 330 332 333 331 329 330 332 331 329 328 330 331 331 331 331 331 331 330 329 330 331 330 329 328 328 329 329 329 329 329 329 329 329 329 329 329 328 327 327 326 326 327 327 326 326 326 326 325 325 325 325 326
332 331 333 336 337 338 338 339 338 337 336 335 335 335 334 335 334 333 333 332 332 332 329 326 326 328 331 332 332 330 330 329 328 330 332 332 331 330 329 331 331 329 327 328 330 330 331 332 331 331 331 330 329 330 331 329 327 328 329 329 329 329 328 329 330 329 329 329 328 328 328 327 327 327 327 327 327 326 326 326 325 325 325 325 326
330 331 333 334 337 338 338 338 338 336 335 335 335 334 334 335 334 332 333 332 332 331 328 328 329 329 331 332 331 330 329 328 327 329 331 331 330 329 329 330 331 330 330 329 330 330 330 331 330 330 331 330 328 330 330 328 328 330 330 329 329 329 329 329 329 328 329 329 328 328 327 327 327 327 327 327 327 326 326 326 326 325 325 325 326
334 335 335 335 337 338 337 336 336 334 334 335 335 334 334 334 333 332 332 332 331 331 330 331 331 329 330 332 332 330 329 327 327 328 329 329 328 327 328 329 330 331 331 331 331 330 330 329 329 329 330 329 328 329 329 329 329 330 330 328 329 330 330 329 327 328 329 329 329 328 327 327 327 326 326 326 326 326 325 325 324 324 325 325 326
338 337 338 338 337 337 336 335 335 333 333 334 334 334 334 332 332 331 332 332 331 331 330 330 329 328 331 332 332 331 328 325 325 327 328 328 326 326 327 328 330 330 330 331 332 330 329 327 327 327 327 328 328 328 329 328 328 329 329 329 329 329 330 329 328 329 328 327 328 328 327 327 327 326 326 326 326 326 325 324 324 325 325 325 326
338 338 339 337 334 333 332 332 333 333 333 334 334 335 334 331 331 332 332 331 329 328 328 326 326 329 331 331 331 330 328 324 323 324 326 327 326 325 327 328 329 329 329 330 330 330 329 327 326 326 327 328 328 327 328 327 327 327 328 329 330 329 329 329 329 328 327 326 328 328 327 327 326 326 326 326 326 326 325 325 325 325 325 325 325
Wind_Speed
16 15 22 23 20 20 18 18 18 18 18 18 19 20 21 21 20 18 17 17 17 16 16 16 17 17 15 14 13 14 15 15 15 16 17 17 17 16 16 16 16 16 17 17 17 18 18 19 19 19 20 20 20 19 19 19 18 17 17 17 17 16 16 16 17 17 16 15 15 16 17 17 17 16 15 15 14 13 13 12 11 11 13 14 15
18 18 23 23 21 19 18 18 17 18 18 19 20 21 21 21 20 19 18 17 17 17 16 16 16 16 15 13 12 13 14 14 15 16 17 16 16 16 16 15 16 16 17 18 18 18 18 19 19 20 21 21 20 20 19 19 19 18 17 17 17 17 17 17 17 16 15 14 13 13 14 14 14 14 14 13 13 12 12 11 10 11 12 13 14
19 20 25 23 21 20 19 18 17 18 18 19 20 21 22 21 21 19 19 18 17 17 16 16 16 16 15 13 12 12 13 13 14 16 16 16 16 16 16 16 17 17 17 19 19 19 19 18 19 20 21 21 20 20 19 20 20 19 19 18 18 17 17 17 17 16 14 12 11 10 11 10 10 11 11 11 11 12 12 12 12 13 12 11 13
19 20 25 23 21 20 18 18 18 18 18 19 21 21 21 21 21 20 19 18 18 17 16 16 15 15 14 13 12 11 12 12 13 15 16 16 16 16 17 18 17 17 18 19 19 20 19 19 19 21 22 21 20 20 19 20 20 20 19 19 19 18 18 19 20 20 19 16 13 11 10 8 7 8 8 9 9 10 11 12 13 13 12 11 11
19 20 25 23 21 20 18 18 17 18 18 19 21 21 21 21 21 21 20 19 18 17 17 16 15 15 14 13 11 11 11 11 12 13 14 15 15 15 17 18 17 16 18 19 19 20 19 19 20 21 22 22 21 21 20 20 20 19 19 20 20 20 20 22 24 24 22 20 18 15 11 8 7 6 5 6 6 7 9 10 12 11 11 11 10
19 21 25 23 21 20 18 17 17 18 18 19 20 20 20 21 21 21 21 20 19 18 17 16 16 14 14 13 11 10 10 10 11 12 12 13 15 16 16 17 17 17 18 18 18 18 18 18 20 22 23 23 22 21 21 20 20 19 19 20 20 20 21 22 23 22 21 20 18 13 10 9 8 5 3 4 4 5 6 7 9 9 10 10 9
18 21 25 23 22 20 19 18 18 18 18 19 19 19 20 21 21 21 21 20 20 18 17 17 16 15 13 12 11 10 10 10 10 11 11 12 14 15 16 17 17 16 17 17 17 17 16 17 19 22 23 23 23 22 22 21 21 20 19 19 19 19 18 20 22 20 18 17 15 11 9 10 8 4 2 3 4 5 6 5 7 8 8 8 8
18 21 22 21 23 21 20 19 19 19 18 18 18 18 18 20 20 20 20 20 20 18 17 17 16 14 13 12 11 10 9 10 10 11 11 12 14 15 16 17 16 16 17 16 16 16 16 17 19 21 22 23 23 23 23 22 22 21 21 20 19 18 17 19 21 20 18 14 12 10 9 8 6 5 4 5 5 5 6 5 5 5 6 6 7
20 22 20 19 23 21 20 20 20 20 17 17 17 17 18 19 19 19 20 20 19 18 18 17 15 14 13 12 11 10 10 10 10 10 10 12 14 15 16 16 16 15 15 16 16 16 16 17 19 20 22 22 23 24 24 23 23 22 22 22 22 21 21 21 21 20 16 11 10 11 10 8 5 7 7 6 6 6 6 6 5 5 4 5 6
21 22 19 19 23 22 21 21 21 19 18 17 16 16 17 18 18 19 19 20 19 18 17 15 14 13 13 13 12 11 10 10 10 9 10 13 14 14 16 16 15 14 14 14 14 14 15 17 19 20 21 22 23 23 24 24 23 23 23 24 25 24 23 22 22 19 12 10 10 12 13 9 6 8 9 8 9 8 7 7 7 6 5 5 6
21 21 18 19 23 22 22 22 21 20 18 17 16 15 16 17 17 18 18 19 18 17 16 15 14 13 13 13 12 12 12 12 12 11 11 12 13 14 15 14 14 14 14 13 13 13 16 18 19 20 21 21 22 23 23 23 23 23 23 24 25 25 24 23 23 16 11 12 12 11 9 7 9 11 12 11 10 9 8 7 8 7 6 6 6
21 20 17 20 23 22 22 23 21 20 18 17 16 15 15 16 16 17 18 18 18 17 17 15 14 14 14 13 13 13 13 12 12 12 12 12 12 15 16 14 14 14 13 13 13 14 17 18 19 19 20 20 21 22 22 23 22 22 23 25 26 26 23 23 21 12 10 12 11 10 8 10 12 13 13 12 12 12 11 10 10 9 9 8 7
20 18 17 23 24 23 23 22 22 20 18 17 15 15 15 15 15 16 17 18 18 18 17 16 15 14 14 14 15 14 12 10 10 11 13 12 11 16 16 14 15 15 13 12 13 16 18 19 18 19 19 19 20 21 21 21 21 22 22 24 26 25 23 21 17 10 10 11 9 8 8 11 13 14 15 15 15 14 13 12 12 11 10 9 9
20 16 19 25 25 23 23 22 22 20 19 18 16 15 15 14 14 16 17 18 18 17 16 16 16 15 16 16 15 13 11 10 9 8 11 12 11 15 16 13 15 15 13 13 14 17 19 19 18 18 18 18 19 19 20 20 20 20 21 23 25 24 24 21 13 9 11 10 8 7 9 11 14 15 15 15 15 14 14 13 13 12 11 11 11
20 17 22 26 24 24 23 22 22 20 19 18 16 15 14 14 14 16 17 18 17 17 17 16 15 16 16 14 13 13 11 10 8 7 9 11 12 16 16 14 14 14 14 14 15 18 19 18 18 18 17 17 17 18 18 19 19 18 19 21 22 22 23 19 10 8 11 9 7 6 9 12 14 15 14 14 14 14 13 13 13 12 12 12 12
18 17 24 26 24 25 23 23 22 21 20 18 17 15 14 13 14 16 17 18 18 18 17 17 16 16 16 13 12 12 11 10 8 7 8 9 12 17 17 14 14 13 14 14 16 18 18 17 17 17 16 15 15 16 16 17 17 17 16 16 19 21 21 19 10 7 9 7 6 5 9 12 13 14 13 13 13 13 13 13 13 12 13 12 12
17 19 25 26 24 24 24 23 22 21 20 18 17 15 14 13 14 16 17 19 19 18 17 17 17 15 14 12 11 11 11 10 9 8 8 8 11 17 18 15 14 13 14 15 16 17 17 17 16 16 15 14 13 14 14 14 14 15 15 14 17 20 19 17 10 8 10 8 6 5 8 10 12 12 11 12 12 12 12 12 12 12 12 11 12
17 19 22 24 24 23 23 23 21 20 18 17 16 15 15 14 15 16 17 19 19 19 17 17 16 15 13 12 12 12 11 10 10 9 9 9 10 15 17 16 14 13 14 15 16 17 17 16 15 15 14 13 12 12 12 12 12 13 14 15 16 18 18 16 11 9 10 8 5 5 7 9 10 12 11 11 11 11 11 11 11 11 11 11 11
17 19 20 21 22 21 20 22 21 19 19 17 17 16 16 15 16 17 17 19 19 18 17 17 16 15 13 13 13 13 12 11 11 10 10 10 9 11 14 15 14 13 14 15 16 17 17 16 14 14 13 13 12 11 11 10 10 11 13 16 17 17 18 14 9 8 9 6 4 4 6 7 9 10 11 11 11 10 9 10 10 10 10 10 10
17 18 19 19 20 20 20 22 21 20 20 18 18 18 17 16 16 17 17 18 18 18 17 17 16 14 13 13 13 12 12 12 11 10 11 10 9 9 10 12 13 12 12 14 16 16 16 16 15 14 12 12 11 10 10 9 9 9 11 13 13 14 14 11 8 8 6 4 4 3 5 6 8 9 10 10 10 9 9 9 9 8 9 9 9
15 15 17 17 19 20 19 21 21 21 20 19 19 19 18 17 17 17 18 18 18 18 17 16 15 14 14 13 13 13 12 12 11 11 11 10 10 10 9 10 11 12 12 12 15 16 15 14 14 13 12 11 9 9 9 8 7 7 8 7 6 9 9 8 8 8 5 2 3 3 4 5 7 8 8 9 9 9 8 8 8 8 8 8 8
16 17 18 17 17 18 19 21 21 21 21 20 20 20 19 18 17 17 17 17 17 17 16 15 15 14 14 14 14 15 13 12 12 12 12 11 11 11 9 9 10 11 11 11 12 14 14 13 12 10 10 10 8 7 7 7 6 5 4 3 4 7 6 7 8 8 5 2 4 4 5 5 5 6 6 7 8 8 8 8 7 7 7 7 7
17 17 17 17 17 16 19 23 22 22 22 20 20 20 19 17 16 16 16 16 16 16 15 15 14 15 16 17 17 17 16 13 13 14 13 13 12 11 9 8 9 10 11 11 10 12 12 11 10 9 7 7 6 6 5 6 5 3 3 2 4 4 5 8 7 7 4 3 4 4 5 5 5 5 4 5 5 6 6 6 6 6 6 6 6
16 15 15 17 17 15 15 19 21 20 21 20 19 19 17 16 15 14 15 15 16 15 15 16 16 17 18 18 18 18 17 15 15 15 14 14 13 11 10 7 6 7 8 10 10 10 10 9 9 8 6 5 4 4 4 5 5 4 3 2 4 3 5 7 6 8 5 3 4 2 4 5 5 5 4 4 4 4 4 4 5 5 6 6 6
14 17 19 20 18 17 16 16 18 18 18 18 17 17 16 15 15 13 13 14 16 16 17 18 17 19 19 17 17 16 16 15 16 15 12 13 12 10 9 6 4 3 4 7 8 9 9 9 9 8 7 6 6 6 6 6 5 5 3 3 5 4 5 6 7 8 7 4 4 2 3 4 4 5 4 4 3 3 3 3 4 5 5 6 5
16 19 22 22 19 17 19 18 17 17 15 14 15 16 16 15 14 13 14 15 18 17 17 19 19 19 19 18 18 16 16 15 15 15 13 13 13 11 10 9 7 5 5 5 6 8 9 9 9 8 7 6 8 7 8 8 6 4 5 5 6 6 6 7 9 9 8 5 5 3 2 3 4 5 4 3 3 3 3 2 2 3 4 4 4
17 21 21 21 21 19 21 21 19 18 15 13 15 16 14 14 14 14 16 17 18 17 17 19 20 20 19 18 18 17 17 16 16 16 13 13 12 11 10 10 9 7 8 8 8 8 6 5 5 5 5 6 7 5 7 8 7 5 6 8 8 8 8 9 11 8 6 6 6 3 2 3 4 4 4 3 3 3 3 2 2 2 3 3 3
16 19 21 22 24 22 22 23 21 20 18 17 16 16 15 13 14 16 15 16 17 17 18 20 20 20 19 19 19 20 19 18 18 16 14 13 12 11 10 10 9 9 10 10 10 7 5 6 5 5 6 7 6 6 8 8 8 7 7 9 9 8 9 11 12 9 5 7 5 4 3 3 3 3 4 4 4 4 3 3 2 2 2 3 3
15 18 21 23 24 22 22 25 24 22 20 19 18 18 16 13 14 16 14 15 16 17 19 20 19 20 20 20 21 22 20 18 18 17 14 14 13 13 11 10 10 10 10 9 8 7 7 8 8 7 7 8 7 8 8 7 8 9 8 9 9 9 10 9 9 9 7 6 5 3 3 3 2 2 4 4 4 5 4 4 3 3 2 3 3
16 18 20 22 24 22 21 23 24 23 21 20 19 19 17 15 16 16 14 15 16 17 19 20 20 20 19 20 21 22 19 16 16 15 15 15 15 15 13 12 12 10 10 9 8 8 9 8 8 7 7 7 6 8 8 7 9 9 9 9 10 11 12 9 7 8 7 6 4 3 3 2 1 1 3 3 4 5 5 5 5 4 4 3 3
17 18 19 22 25 23 21 21 21 22 21 20 20 19 18 17 17 15 15 16 17 17 18 20 20 19 19 19 20 21 18 17 17 14 16 17 17 16 14 13 12 10 8 7 7 8 8 8 9 8 7 6 6 7 7 7 8 8 9 9 11 11 11 8 7 6 8 7 5 4 3 2 1 2 3 3 4 6 7 7 6 6 6 6 5
18 20 20 22 24 23 22 21 21 22 21 20 20 20 19 20 18 13 14 17 16 16 17 19 20 20 20 19 19 20 18 19 19 15 16 18 16 15 13 12 10 9 8 7 7 7 7 8 10 10 10 8 6 7 6 6 7 7 9 9 11 11 10 7 7 5 9 8 7 5 4 2 0 2 3 3 5 6 8 9 9 9 9 10 10
16 19 20 22 24 24 23 23 23 22 21 19 20 21 20 20 19 14 14 16 15 15 15 17 19 19 20 18 16 17 17 20 21 17 16 16 16 15 13 12 11 10 9 8 8 7 6 8 8 8 9 8 7 7 6 6 7 6 8 9 11 10 7 4 5 6 7 6 7 7 5 4 2 0 3 3 4 5 7 9 9 10 9 10 12
15 19 23 22 22 23 23 23 22 21 20 19 19 20 18 18 19 17 16 16 15 16 15 16 18 18 18 16 15 16 16 18 19 18 16 15 16 16 14 13 12 11 9 8 7 6 6 6 6 6 7 7 6 7 6 6 7 7 8 7 8 9 5 3 5 6 7 7 8 7 7 6 5 3 2 2 4 5 6 7 8 9 8 8 10
15 21 25 20 17 20 22 21 20 20 19 19 19 18 18 18 18 18 16 14 14 16 17 19 19 18 18 15 14 15 16 16 16 17 16 15 16 15 13 13 12 10 8 8 7 5 6 5 5 6 7 6 6 6 6 6 7 7 8 7 7 8 5 2 5 8 8 9 9 7 8 7 6 5 4 2 4 4 5 5 6 7 6 7 8
15 22 24 18 15 19 19 17 17 18 17 18 19 18 18 18 17 17 17 15 14 14 15 17 17 16 17 15 14 14 14 15 14 15 16 14 13 13 11 10 10 10 8 8 7 5 6 6 6 7 7 7 7 7 7 7 7 7 7 6 6 6 5 2 5 8 9 10 9 8 8 7 7 7 7 5 4 4 4 4 4 5 6 6 7
15 20 19 17 16 17 17 16 16 17 16 18 18 17 17 16 15 17 18 17 15 15 14 15 16 16 15 14 15 14 12 13 14 14 14 13 12 12 12 10 8 9 8 7 7 6 7 7 8 7 7 7 7 7 6 6 7 7 6 5 5 5 5 4 5 7 8 8 8 9 9 9 9 9 8 7 5 4 5 4 3 4 4 5 6
17 20 18 16 16 16 16 15 16 16 16 17 16 16 16 16 16 17 19 18 15 16 15 15 16 16 15 13 14 14 12 12 13 13 13 11 9 9 11 10 8 8 8 7 7 7 7 7 8 8 8 7 6 7 7 5 5 5 4 4 5 4 3 5 6 7 8 8 8 8 8 9 9 8 8 6 5 5 5 5 4 4 4 4 5
21 21 18 18 17 17 17 16 16 16 17 18 16 16 17 16 17 19 19 17 15 16 16 15 14 15 15 13 12 13 11 12 12 11 11 10 8 7 7 7 8 7 7 8 7 8 9 8 8 9 9 8 7 7 6 5 5 4 4 4 4 3 2 5 6 6 8 9 9 9 7 8 8 8 8 6 6 6 6 6 6 5 4 3 4
25 24 20 19 18 18 19 18 19 18 19 19 18 19 19 18 19 20 19 17 15 16 16 15 14 14 15 13 12 12 11 11 10 9 10 9 7 6 6 6 7 7 7 9 8 8 9 9 9 9 9 9 7 6 6 6 5 5 6 6 4 4 4 6 6 5 7 9 9 9 8 8 8 8 8 7 6 6 6 6 5 5 4 3 3
25 25 20 20 20 20 20 21 21 22 21 21 21 21 21 22 21 20 19 17 16 17 17 15 13 14 14 12 12 12 11 11 10 8 9 9 7 6 7 7 8 8 8 9 10 10 10 9 9 8 8 8 7 6 7 7 7 6 7 6 5 4 4 6 6 5 6 8 8 8 8 8 8 8 7 6 7 7 7 6 5 6 5 4 3
24 23 21 21 22 21 20 22 23 24 24 24 23 23 23 23 21 18 16 15 16 17 16 15 13 13 14 13 13 12 11 11 11 9 8 8 8 8 8 8 8 10 10 11 12 12 11 11 9 8 8 7 6 7 8 9 8 6 5 4 4 4 5 6 6 5 6 7 7 7 7 7 7 8 7 6 8 9 7 5 5 7 6 5 3
24 22 21 20 21 20 20 22 23 24 26 25 24 24 23 22 20 18 15 13 16 16 15 15 12 13 15 14 13 13 12 11 10 8 8 8 9 9 8 8 9 11 12 12 13 13 12 11 10 8 8 7 7 8 10 11 9 7 6 4 3 5 6 6 6 5 5 5 6 6 5 5 6 6 6 6 7 8 7 5 4 5 5 5 3
21 21 20 19 19 19 20 21 22 24 25 25 24 24 23 21 20 19 17 16 16 16 15 14 12 13 15 14 12 13 12 9 8 7 8 9 9 9 9 9 10 11 11 11 11 11 11 11 10 9 9 8 8 9 10 11 9 8 7 4 5 5 5 7 8 7 5 4 5 6 5 5 6 5 5 5 6 6 6 4 4 4 4 4 3
18 18 18 19 18 17 18 20 21 23 24 23 23 24 23 21 20 20 18 17 16 15 15 15 13 14 14 12 11 11 9 7 7 7 7 8 8 8 8 9 10 10 10 9 8 9 10 10 10 10 10 9 9 8 9 10 8 7 6 5 6 5 4 7 8 6 5 4 4 5 5 5 5 5 5 4 4 4 4 3 4 4 4 4 4
18 19 18 18 18 16 16 17 17 20 22 22 22 23 22 20 19 20 19 17 15 14 14 15 14 14 12 11 9 8 8 7 7 8 7 8 8 8 8 9 10 9 9 9 8 8 9 9 9 8 9 9 9 7 7 9 10 9 7 4 4 4 5 9 8 6 7 6 5 5 4 4 3 4 3 3 3 3 2 2 3 4 5 5 5
26 26 22 19 17 15 15 15 15 17 18 20 22 20 18 17 17 19 17 16 16 15 15 14 13 12 11 10 8 8 9 8 8 8 8 7 7 7 8 8 8 8 7 8 9 10 9 9 9 8 7 9 10 8 8 9 10 10 8 5 4 4 4 8 8 7 9 7 6 6 5 4 4 4 2 2 3 2 2 3 4 4 5 7 6
30 28 24 21 17 15 16 15 15 14 14 17 19 17 16 16 17 17 15 14 15 15 14 14 12 11 10 9 8 9 9 8 8 8 7 7 7 7 7 7 7 7 6 7 9 10 10 11 11 11 9 10 11 10 9 9 8 8 7 5 4 3 3 7 8 8 8 8 8 7 5 4 4 4 4 2 2 3 4 4 5 5 5 7 8
28 25 22 19 16 17 18 16 15 14 12 14 17 18 17 15 15 15 15 15 15 15 14 13 12 11 9 8 8 9 9 9 9 9 8 7 7 7 7 7 7 7 7 7 8 9 11 12 12 12 12 11 11 10 9 9 8 8 8 6 5 3 3 5 5 6 7 8 8 7 6 5 3 3 3 3 4 4 4 4 5 7 7 8 8
24 21 19 18 17 18 17 15 16 17 16 15 15 17 16 14 15 16 17 18 16 15 14 12 12 13 11 10 10 10 11 11 10 10 8 7 7 7 7 7 7 7 7 7 8 9 10 10 10 11 12 11 10 10 9 8 9 10 8 5 4 4 4 5 4 5 7 8 8 7 8 7 4 4 4 4 5 4 4 5 6 8 8 7 7
18 16 19 17 11 9 8 10 15 17 17 17 16 17 19 18 19 19 19 19 18 16 15 13 13 14 13 12 11 11 11 12 12 11 10 9 9 8 8 8 8 8 8 8 8 8 8 8 7 8 9 10 10 10 10 9 10 11 8 5 5 6 7 6 5 4 7 9 8 9 9 8 7 7 6 6 7 6 5 6 7 8 9 6 4
Wind_Direction
149 179 171 162 161 157 154 150 151 149 149 148 148 153 157 161 162 162 160 154 148 143 142 143 140 135 131 127 129 132 135 135 137 142 141 136 132 128 124 122 119 115 111 109 106 102 100 96 95 92 91 90 90 94 96 96 99 100 101 105 106 103 99 97 100 101 99 97 94 91 91 92 92 91 89 88 88 84 80 80 79 82 84 81 74
149 170 170 163 162 158 154 153 152 150 149 148 152 157 160 164 164 165 162 158 153 149 146 145 143 137 133 132 129 129 134 137 139 144 142 138 134 131 128 126 123 119 116 114 110 104 100 97 96 94 92 92 94 96 97 97 97 96 98 103 103 100 96 93 95 95 93 91 87 85 85 87 89 89 87 83 80 76 75 75 78 84 90 89 79
145 162 169 163 162 159 155 155 153 151 150 150 154 159 164 166 167 167 164 162 158 155 151 149 146 140 137 137 134 132 132 135 140 143 141 138 138 136 132 130 126 123 120 116 111 105 101 101 99 97 95 94 96 98 98 96 96 95 96 100 101 98 95 92 88 86 86 86 88 86 82 80 84 89 88 82 77 76 75 71 74 82 87 90 86
145 158 168 163 162 160 157 157 154 152 151 153 156 161 167 169 169 169 167 166 164 162 157 153 150 145 144 142 139 136 131 133 140 144 145 142 140 137 133 131 129 127 122 118 114 109 105 104 103 101 98 96 96 98 98 96 96 97 97 100 102 101 97 89 82 78 74 71 71 69 75 78 72 82 87 84 81 80 79 76 76 80 84 85 88
146 158 168 163 161 160 158 158 155 154 154 156 159 163 167 170 171 171 172 170 169 168 162 158 154 152 148 145 143 140 135 136 140 145 148 145 140 135 134 131 131 131 124 122 118 114 108 106 107 103 99 97 95 95 98 98 98 98 100 102 104 105 101 92 85 80 73 69 66 55 56 73 67 63 83 87 83 79 78 76 75 78 82 82 83
145 158 166 163 162 161 159 159 156 155 155 157 160 164 168 171 173 174 175 173 172 171 167 162 159 158 153 150 148 145 142 141 144 148 149 145 141 137 136 134 135 133 127 126 123 120 113 109 109 105 102 99 97 95 95 97 100 100 101 102 107 111 108 100 92 84 77 73 73 66 54 69 74 63 78 93 90 83 78 75 77 76 74 79 81
149 156 164 165 163 160 159 160 157 156 155 156 160 163 169 172 174 176 176 175 175 174 171 166 164 163 158 153 150 152 150 147 149 153 153 147 144 141 141 139 137 134 131 132 129 126 118 116 113 107 104 102 100 97 95 96 98 101 101 103 108 113 112 103 94 86 79 72 75 82 78 80 83 82 83 81 87 84 78 75 80 77 72 81 84
151 152 159 163 164 161 159 160 157 156 154 154 158 161 169 173 175 177 177 178 177 175 173 171 169 165 161 155 154 159 156 153 154 157 158 154 151 147 146 143 138 136 135 134 133 130 123 123 117 110 107 105 103 100 98 96 97 99 101 104 107 111 109 98 89 81 75 77 82 83 81 84 82 86 86 73 79 85 83 85 92 91 81 84 89
147 151 156 163 166 161 159 160 157 155 153 153 155 159 167 171 174 177 179 180 180 177 176 175 170 167 161 156 158 162 158 154 152 160 163 158 155 151 150 144 139 139 137 134 132 132 129 127 121 115 111 109 106 103 101 98 97 98 99 101 101 100 95 87 80 73 73 82 92 99 97 91 80 80 82 77 78 84 87 90 99 113 101 84 86
145 152 158 165 165 160 159 159 156 155 155 156 156 159 164 168 172 177 181 181 181 178 178 174 167 166 159 155 160 162 160 150 147 161 166 160 156 155 152 143 142 142 137 130 125 129 132 129 123 118 114 112 109 106 104 101 100 100 102 101 99 94 87 81 73 69 77 83 97 125 127 108 87 79 79 79 79 80 84 87 91 100 102 90 91
149 156 159 164 164 160 159 159 158 158 158 158 157 158 161 165 170 175 181 181 180 178 176 171 166 166 159 161 164 164 160 151 153 163 166 166 161 158 152 142 145 142 134 129 126 129 132 129 123 120 117 114 112 110 108 105 104 103 104 103 100 93 86 81 76 73 78 77 85 113 122 99 86 83 82 81 79 80 81 86 88 89 90 91 95
154 159 164 164 162 160 160 161 160 161 161 159 156 157 159 162 167 172 177 179 178 176 173 170 169 168 166 165 161 158 155 153 164 172 177 182 174 162 153 148 150 143 136 136 135 135 133 130 125 121 118 115 114 112 111 109 108 107 107 104 98 91 86 82 80 79 78 81 91 98 96 93 91 87 85 82 81 81 81 83 86 87 87 89 91
156 160 170 164 161 162 161 164 163 165 163 159 157 156 157 159 163 168 172 175 177 175 174 172 169 169 168 163 156 154 152 156 165 176 188 191 183 164 153 155 155 144 142 145 142 140 136 132 128 125 121 118 116 114 112 110 110 110 109 105 100 95 90 84 83 87 85 90 99 101 100 98 95 91 87 84 84 83 83 84 84 85 83 85 88
160 164 172 164 162 162 163 167 167 167 163 159 158 156 156 159 163 166 169 173 175 174 174 173 169 166 164 160 155 153 153 159 157 169 190 192 185 166 155 160 157 147 150 154 149 146 140 135 131 127 124 121 117 116 114 112 111 111 110 105 102 98 93 84 81 90 87 89 95 102 103 100 97 94 91 89 88 87 87 87 86 84 82 84 84
166 168 170 165 164 164 166 170 170 169 165 161 158 156 156 158 162 165 169 170 170 169 169 169 166 163 160 157 152 151 157 159 159 170 189 193 187 169 159 160 158 154 160 160 153 148 142 136 132 128 127 124 120 118 117 116 115 115 114 109 105 101 97 94 91 89 87 91 95 99 100 99 99 97 96 93 91 91 91 90 90 87 84 84 83
168 167 168 168 167 166 169 172 173 171 165 162 159 157 155 155 159 163 166 164 163 165 166 164 163 162 158 157 154 155 161 159 164 176 184 191 190 174 161 159 162 165 168 163 157 150 143 139 136 134 130 127 123 120 119 119 119 119 118 114 109 106 104 102 98 90 90 92 84 91 100 98 97 96 96 97 96 95 93 92 92 92 88 87 86
163 163 167 170 170 170 171 173 174 170 165 163 159 156 152 151 155 160 162 159 161 162 163 163 162 163 162 162 161 163 163 160 168 177 177 174 181 175 164 163 168 174 171 165 159 150 145 144 142 139 132 128 126 122 122 122 122 121 117 114 112 112 107 100 100 102 95 91 94 106 103 97 96 94 92 92 93 93 93 92 92 93 92 89 88
158 162 168 172 173 173 172 171 170 167 164 161 157 154 151 150 153 157 158 158 161 162 162 164 163 165 167 162 162 167 166 168 173 172 171 161 163 172 171 169 172 178 172 165 162 153 148 147 145 141 137 133 129 127 127 126 126 123 116 112 110 107 98 92 95 97 91 96 127 135 105 99 99 97 93 90 89 89 91 93 94 93 92 90 88
161 167 168 172 171 171 172 168 166 166 162 159 157 154 152 152 153 156 158 160 163 164 164 165 166 167 166 163 165 170 171 178 178 170 172 166 157 167 178 179 179 182 173 166 163 157 152 150 148 144 143 140 137 134 128 128 128 124 120 114 108 99 87 84 91 93 96 120 157 134 107 107 104 100 98 96 91 88 88 90 92 92 90 89 87
170 172 166 172 170 171 176 170 168 169 167 163 159 156 154 153 155 157 159 162 165 166 166 166 168 168 169 172 174 176 177 183 179 176 178 174 167 164 175 185 189 190 178 166 163 164 160 155 151 149 150 147 145 139 129 129 127 126 127 122 113 97 86 89 103 101 109 163 174 132 119 117 108 102 100 100 98 93 93 91 88 87 86 86 85
173 175 170 177 178 178 177 171 171 171 171 167 161 158 155 152 155 158 160 163 167 169 169 169 169 171 175 175 175 175 177 180 177 181 183 180 182 174 170 179 190 195 191 177 167 168 169 164 158 155 155 151 148 142 134 131 130 131 130 136 123 93 92 100 102 97 95 169 170 153 147 127 113 107 105 105 101 99 99 97 94 89 84 82 80
175 179 176 176 182 186 177 171 173 173 173 169 164 159 153 152 154 157 159 163 168 170 170 170 171 172 171 168 169 169 170 172 174 180 182 186 186 180 178 179 186 192 195 194 181 176 179 174 164 161 160 155 152 144 136 134 139 135 128 149 107 95 111 112 105 103 102 156 151 160 159 136 125 114 109 105 100 103 104 103 101 96 90 83 78
180 177 177 179 182 190 181 174 174 174 173 168 163 158 152 153 156 157 158 163 166 168 168 169 172 172 168 166 167 164 163 166 173 177 178 185 183 179 182 181 191 196 195 199 196 191 190 180 170 175 172 158 157 153 150 157 158 146 146 134 105 124 138 117 118 118 119 151 126 141 151 135 130 117 111 108 104 106 104 101 99 95 92 84 77
182 172 178 189 187 187 185 178 173 173 172 164 157 154 154 155 157 159 162 165 166 167 170 172 173 172 171 170 167 162 161 166 173 176 177 181 181 181 181 180 196 201 201 205 206 208 205 195 185 188 186 168 176 177 178 190 177 174 186 129 129 167 134 120 134 134 142 148 105 120 139 126 127 126 127 122 117 110 99 95 94 91 88 82 77
180 181 189 194 188 184 186 179 170 173 172 159 154 156 158 157 160 167 167 166 169 174 176 177 178 174 173 171 165 162 161 166 172 174 174 175 175 177 176 172 185 187 197 206 206 205 206 211 206 204 205 191 202 194 184 217 210 188 200 158 167 179 147 145 153 164 189 164 114 139 143 139 136 126 124 124 127 116 96 90 90 86 86 86 84
185 195 196 191 184 183 182 174 168 175 176 168 166 164 162 161 166 171 168 171 177 182 181 179 180 175 176 174 166 165 163 163 169 171 170 172 169 170 173 169 173 175 160 166 184 192 195 209 217 220 222 215 220 200 182 221 238 205 198 191 196 185 173 169 161 190 211 157 124 139 162 179 156 125 109 112 121 120 108 99 89 84 84 86 84
193 203 196 187 185 186 177 169 173 178 179 184 183 170 167 165 169 174 172 179 185 190 185 177 180 180 181 179 168 168 168 164 166 169 169 169 166 166 176 169 167 171 153 156 181 189 178 181 210 209 204 221 233 222 203 218 229 224 206 199 207 190 189 188 168 186 199 145 131 135 167 189 157 127 101 99 107 108 111 106 98 95 92 88 79
196 202 195 191 192 193 183 175 178 180 179 188 188 176 175 173 177 181 177 185 190 194 190 181 185 186 184 180 172 172 173 169 166 165 162 161 162 163 170 162 159 170 161 167 180 172 149 154 182 184 194 214 212 219 224 217 214 225 213 202 211 195 201 206 179 185 190 153 150 142 158 163 138 118 91 89 94 88 91 100 103 103 98 93 83
199 197 196 196 192 191 187 180 179 182 186 192 189 180 181 184 188 187 183 193 194 196 195 191 193 189 186 182 178 174 168 167 165 159 158 159 160 158 158 155 159 171 164 163 168 158 156 166 179 181 197 204 196 213 222 219 214 220 216 206 216 202 206 214 177 186 192 159 164 151 143 145 123 97 76 78 84 81 78 79 79 82 85 82 79
201 194 195 193 185 180 179 177 175 178 185 192 189 188 193 195 193 188 192 201 198 197 197 196 195 192 190 185 182 174 160 162 163 156 160 164 163 159 157 160 166 175 165 160 165 160 159 167 172 173 195 195 195 209 205 213 214 214 218 211 217 212 214 211 161 178 190 164 171 153 160 169 107 66 69 76 81 79 72 70 72 77 80 78 76
204 197 192 186 182 178 176 177 175 175 181 189 192 196 199 196 193 192 197 203 201 199 197 196 195 194 192 188 186 172 157 162 160 158 170 170 169 167 167 171 173 175 170 169 172 161 157 168 171 171 189 188 198 206 194 207 211 213 221 219 224 222 220 197 140 174 196 178 184 171 184 196 45 26 59 75 81 80 78 77 82 87 91 87 76
210 202 190 181 182 182 181 181 179 180 182 187 194 195 193 192 190 194 199 199 202 203 199 196 194 196 196 193 187 168 158 165 158 161 177 174 175 175 174 176 172 170 170 180 183 168 168 184 184 183 189 184 195 207 197 204 212 219 219 227 235 232 227 183 130 186 193 178 194 193 190 182 51 6 42 70 86 86 83 84 87 95 101 91 75
207 206 197 186 187 186 183 184 180 180 183 188 196 192 190 194 190 191 198 197 204 204 199 198 197 199 200 196 186 168 162 166 163 166 173 174 178 176 175 176 172 174 175 184 186 175 184 200 199 199 194 184 195 202 194 202 212 225 220 227 239 241 234 165 132 194 197 187 200 200 188 177 187 77 48 67 102 108 96 95 97 102 107 92 75
199 201 198 194 191 185 180 184 179 176 183 190 196 192 192 199 196 197 203 203 202 192 184 194 201 204 205 198 185 173 167 167 169 171 169 174 178 174 175 175 173 176 177 182 178 169 192 205 198 201 194 187 205 203 195 204 209 226 229 234 245 247 239 146 146 198 215 205 191 191 189 183 187 162 117 75 106 132 120 111 111 108 107 92 76
195 193 192 194 191 184 179 181 176 172 185 192 193 194 197 202 201 202 207 206 197 183 179 188 195 202 207 200 185 173 169 170 173 175 171 174 179 174 173 173 170 169 174 177 165 165 195 194 179 194 194 189 210 206 200 209 208 219 226 234 250 250 248 179 161 189 208 204 189 194 194 188 195 179 169 145 113 138 141 126 118 112 105 96 88
193 195 196 200 194 185 177 175 171 171 186 196 196 198 202 205 205 207 209 208 199 189 188 187 186 196 201 194 186 174 170 173 174 179 177 175 181 174 173 178 163 160 179 179 162 175 194 185 183 193 189 188 204 205 202 206 204 212 216 225 244 242 235 194 157 177 195 202 202 203 187 175 195 194 177 160 136 139 149 135 117 116 113 108 107
190 191 194 197 192 185 176 174 173 178 190 197 200 203 206 209 210 210 211 213 208 200 199 189 184 195 194 186 190 181 176 180 178 184 182 179 185 176 180 188 160 161 188 180 165 183 194 188 190 191 185 188 203 204 201 202 204 216 217 215 226 224 214 196 183 186 189 198 205 205 189 174 183 189 174 157 144 122 131 139 122 116 121 121 123
192 190 187 184 186 186 184 186 184 190 197 196 198 204 209 213 214 214 213 217 215 206 206 197 189 194 191 187 192 183 179 188 188 189 185 187 189 167 175 179 162 176 187 174 170 179 192 196 194 195 186 184 204 203 195 197 197 203 211 214 211 206 202 191 195 194 183 184 191 200 200 183 178 176 166 157 143 120 120 130 125 121 122 125 130
203 199 190 184 188 190 193 199 197 199 201 197 196 204 212 213 214 214 212 217 218 210 209 205 196 194 192 192 192 185 186 198 200 190 183 197 200 176 180 172 165 183 176 169 178 183 195 199 195 200 190 181 200 205 195 196 193 186 199 214 197 176 170 168 171 181 180 179 180 187 189 179 175 168 160 152 136 126 121 118 119 123 118 121 134
207 204 193 188 190 191 194 199 202 205 204 203 203 208 212 210 211 211 212 216 214 209 208 206 203 196 191 193 195 191 192 201 203 192 182 195 202 192 202 186 171 182 175 173 181 191 202 200 196 204 201 191 192 198 198 198 189 187 205 223 215 183 154 145 147 158 177 183 175 171 172 170 173 171 164 150 137 134 125 116 109 107 105 116 141
202 201 194 190 189 188 191 195 200 204 205 209 211 213 213 210 210 209 210 213 207 206 208 205 206 200 189 190 199 196 196 200 199 198 189 187 197 201 205 197 182 184 182 178 183 192 199 197 193 201 206 195 184 186 194 198 192 195 210 221 220 199 149 133 145 145 161 182 177 162 165 170 170 170 167 152 145 147 140 133 120 108 105 107 126
200 199 195 194 193 188 189 195 200 203 205 210 212 213 212 210 209 205 206 210 204 204 208 205 203 203 193 191 199 195 199 206 202 209 208 194 202 210 209 207 196 190 188 185 189 195 197 193 187 193 198 183 177 187 191 198 200 201 212 202 184 183 155 140 155 149 144 166 173 166 164 166 164 157 159 160 152 148 142 128 118 116 110 99 93
201 201 199 200 200 193 190 195 200 201 202 204 206 207 205 205 206 202 198 201 202 200 204 203 194 200 200 193 194 191 196 207 205 214 220 207 210 213 213 211 204 199 196 196 198 199 198 192 183 182 186 177 181 193 195 201 201 192 196 199 172 162 153 150 157 162 166 167 166 168 158 148 148 141 144 149 137 140 150 138 119 122 113 102 91
199 200 201 203 203 201 197 198 201 198 195 195 198 201 200 203 205 200 194 194 199 197 198 196 185 198 204 194 196 195 194 200 199 206 211 208 211 211 208 204 205 204 199 201 203 200 198 192 185 181 180 179 190 202 201 201 203 192 188 205 204 183 163 159 157 161 180 181 165 168 165 155 158 158 148 130 119 134 159 155 120 111 99 100 101
200 199 202 206 206 207 206 206 204 199 196 193 194 198 201 204 200 197 197 196 199 196 194 191 186 200 206 198 200 196 191 191 188 192 195 197 202 202 200 195 201 203 196 196 199 199 195 191 192 191 186 182 189 210 209 199 203 199 194 207 207 214 204 166 153 148 146 147 162 170 179 186 183 182 171 153 149 149 152 133 96 94 92 95 99
204 205 207 209 208 210 213 211 206 204 203 197 194 199 202 202 199 199 198 195 197 194 193 192 192 203 204 194 196 188 183 185 181 183 188 191 194 197 197 192 199 205 198 192 191 192 187 187 195 194 192 188 185 199 205 204 206 200 204 212 201 229 213 172 160 149 136 143 172 165 158 178 172 164 165 159 160 151 136 107 85 90 93 95 96
214 217 216 212 210 213 212 207 205 201 199 198 198 201 200 200 206 207 198 190 194 190 190 195 195 204 201 186 185 179 177 181 179 181 186 188 188 193 196 192 200 210 207 199 195 192 183 187 195 188 191 198 193 191 198 209 210 206 213 209 199 232 205 179 181 163 144 147 163 150 132 138 140 137 138 126 133 131 105 88 85 90 98 102 91
219 221 218 214 210 208 207 209 210 196 185 193 198 202 206 207 210 211 198 189 195 190 189 193 191 198 195 179 177 175 176 181 180 181 185 186 187 191 195 194 198 203 203 205 200 191 184 192 197 191 192 202 201 199 203 207 202 209 219 196 189 230 203 192 197 177 159 150 148 152 146 137 146 158 158 133 106 102 108 107 104 104 107 108 98
218 220 219 215 211 214 215 216 221 215 204 197 194 203 216 219 214 209 197 190 196 194 188 188 188 189 184 178 176 173 177 179 179 183 185 188 190 191 195 195 199 197 187 193 197 188 191 202 205 200 200 204 206 205 208 206 192 198 215 203 193 214 214 213 199 175 170 156 152 167 164 152 172 188 166 132 108 102 116 120 115 114 109 107 112
215 219 216 205 202 208 209 210 220 225 214 195 187 192 196 204 205 198 192 189 191 193 187 183 185 183 180 184 179 171 178 180 180 182 179 186 192 187 191 192 195 196 186 189 196 195 203 212 209 206 204 203 208 209 208 209 202 198 199 199 207 210 217 223 197 175 180 170 166 174 163 154 156 135 126 125 117 113 116 116 114 115 110 109 126
209 212 206 195 177 155 163 208 219 213 198 186 185 180 176 189 197 193 192 188 185 188 187 185 186 184 184 187 177 169 177 182 185 186 180 185 191 187 188 189 191 193 191 193 195 197 207 213 212 210 205 204 210 211 208 209 211 205 190 184 214 217 214 211 192 179 181 168 159 161 151 143 137 125 126 125 118 119 115 113 112 111 112 118 142